Location: Newark
(34.1333°N, 7.9667°W)
Time: 12:21:26
(UTC+00:00)

FO-29 - Pass Details

Date: 10 June 2023
Orbit: 800 x 1321 km, 98.5° (Epoch: 21 September)

Event Time Altitude Azimuth Distance (km) Brightness Sun altitude
Rises 04:32:13 0° 18° (NNE) 3,460 13.4 -9.2°
Reaches altitude 10° 04:34:33 10° 23° (NNE) 2,572 12.7 -8.8°
Maximum altitude 04:40:11 56° 101° (E) 1,146 10.2 -7.8°
Drops below altitude 10° 04:46:30 10° 179° (S) 2,887 11.7 -6.7°
Sets 04:49:14 0° 183° (S) 3,918 12.3 -6.3°
